User: anonymous   Login
Location: Unspecified
(0.0000°N, 0.0000°E)
Time: 03:33:40
(UTC+00:00)
Language:

Tsikada - Orbit

View from above orbital plane
View from above orbital plane
View from above satellite
View from above satellite

Ground track
Ground track

The orbit data is extracted from the following two-line orbital elements,

1 23463U 95002A   17112.95153659 +.00000074 +00000-0 +63373-4 0  9996
2 23463 082.9263 326.9255 0040149 062.2873 053.1058 13.72470387113973
Epoch (UTC): 22 April 2017 22:50:12
Eccentricity: 0.0040149
inclination: 82.9263°
perigee height: 961 km
apogee height: 1020 km
right ascension of ascending node: 326.9255°
argument of perigee: 62.2873°
revolutions per day: 13.72470387
mean anomaly at epoch: 53.1058°
orbit number at epoch: 11397

The dashed part of the orbit path shows where the satellite is in the earth's shadow,  

DLR